Regional Weather Roundup
Issued by NWS

Home | Current Version | Previous Version | Text Only | Print | Product List | Glossary On
Versions: 1 2 3 4 5 6 7 8 9 10 11 12 13 14 15 16 17 18 19 20 21 22 23 24 25 26 27 28 29 30 31 32 33 34 35 36 37 38 39 40 41 42 43 44 45 46 47 48 49 50
000
ASUS42 KTBW 280417
RWRFL
FLORIDA REGIONAL WEATHER ROUNDUP
NATIONAL WEATHER SERVICE TAMPA BAY RUSKIN FL
1200 AM EDT FRI AUG 28 2015

NOTE: "FAIR" INDICATES FEW OR NO CLOUDS BELOW 12,000 FEET WITH NO
SIGNIFICANT WEATHER AND/OR OBSTRUCTIONS TO VISIBILITY.


FLZ001>010-012>015-112-114-115-280500-
PANHANDLE FLORIDA

CITY           SKY/WX    TMP DP  RH WIND       PRES   REMARKS
PENSACOLA      CLEAR     76  67  73 CALM      29.97S
PENSACOLA NAS  CLEAR     70  66  87 CALM      29.96S
MILTON NAS     CLEAR     68  65  90 CALM      29.98
CRESTVIEW      CLEAR     75  65  70 N5        29.99S
DUKE FIELD     CLEAR     71  64  79 CALM      29.97S
VALPARAISO     PTCLDY    73  64  73 CALM      29.97S
MARY ESTHER    CLEAR     71  66  83 N6        29.96S
TRI COUNTY     FAIR      69  67  93 N5        29.99R
PANAMA CITY    FAIR      72  66  81 CALM      29.96S
TYNDALL AFB    PTCLDY    73  67  81 CALM      29.97R
APALACHICOLA   PTCLDY    74  66  76 NW5       29.97R

STATION/POSITION SKY/WX   TEMP    WIND        PRES    WAVE   SWELL
                          AIR SEA DIR/SP/G            HT/PER HT/PER
                          (F)     (DEG/KT/KT) (MB)    (FT/S) (FT/S)
30.1N   87.6W              83 85  280/  4/  6 1014.2F   0
29.2N   88.2W              81 85   30/  6/  8 1015.2F   1
28.8N   86.0W              83 86  360/  8/ 10 1015.2R   1/ 4
PANAMA CITY BEAC           80 85  310/  5/  6 1014.7R
CAPE SAN BLAS    NOT AVBL
TOWER C                    83     360/  9/ 10 1014.4R
28.5N   84.5W              85 87  170/  4/  6 1014.5R   1/ 4   2/ 4

$$
FLZ011-016>038-118-127-128-134-139-239-280500-
NORTH FLORIDA

CITY           SKY/WX    TMP DP  RH WIND       PRES   REMARKS
MARIANNA       CLEAR     75  65  70 CALM      29.97R
TALLAHASSEE    MOCLDY    80  70  71 CALM      29.97S
PERRY          PTCLDY   N/A N/A N/A NE3       29.99S
CROSS CITY       N/A     76  73  91 E5        29.99R
LAKE CITY      FAIR      70  70 100 SE7       30.00S
GAINESVILLE    MOCLDY    76  74  93 CALM      30.00R
MAYPORT NAS    MOCLDY    78  75  90 S3        30.00S
JACKSONVILLE   MOCLDY    78  75  90 CALM      30.00R
JAX NAS        PTCLDY    84  74  71 SE8       30.00F
JAX CRAIG      PTCLDY    78  74  87 CALM      30.00S
JAX CECIL      PTCLDY    75  75 100 CALM      30.00R
FERNANDINA BEA MOCLDY    81  77  89 CALM      29.99F
ST AUGUSTINE   PTCLDY    78  74  87 CALM      30.01R

STATION/POSITION SKY/WX   TEMP    WIND        PRES    WAVE   SWELL
                          AIR SEA DIR/SP/G            HT/PER HT/PER
                          (F)     (DEG/KT/KT) (MB)    (FT/S) (FT/S)
SHELL POINT                82     340/  3/  4   N/A
KEATON BEACH               75     100/  3/  4 1015.5R
CEDAR KEY                  79     190/ 16/ 17 1015.5F
FERNANDINA                 81 86  120/  2/  2 1015.4R
30.7N   81.3W                 86                N/A     2/10   2/11
MAYPORT                    81 86  190/  3/  4 1016.2R
31.4N   80.9W              82 85  130/ 12/ 14 1016.7R   3/10   2/10
ST AUGUSTINE               78 86  220/  4/  5 1016.9R

$$
FLZ040-043>046-052-053-057-058-063-144-280500-
INTERIOR CENTRAL FLORIDA

CITY           SKY/WX    TMP DP  RH WIND       PRES   REMARKS
OCALA          PTCLDY    75  70  83 CALM      30.00R
THE VILLAGES     N/A     77  73  88 CALM      29.90S
LEESBURG       PTCLDY    79  70  74 S5        30.00S
SANFORD        PTCLDY    75  72  90 CALM      30.00R
ORLANDO EXEC   CLEAR     76  74  93 S6        30.00S
ORLANDO INTL   PTCLDY    74  73  97 CALM      30.01S
WINTER HAVEN   CLEAR     76  73  91 SE6       30.01S
LAKELAND       PTCLDY    73  72  94 SE6       30.01R
BARTOW         FAIR      73  73 100 CALM      30.02R
OKEECHOBEE     CLEAR     72  72 100 SE3       30.01S

$$
FLZ041-047-054-059-064-141-147-280500-
EAST CENTRAL FLORIDA

CITY           SKY/WX    TMP DP  RH WIND       PRES   REMARKS
DAYTONA BEACH  MOCLDY    74  73  97 CALM      30.01R
DELAND           N/A     73  73 100 CALM      30.02R
CAPE CANAVERAL MOCLDY    74  70  88 CALM      29.99R
PATRICK AFB    PTCLDY    80  76  86 S6        29.99S
MELBOURNE      CLEAR     75  74  96 CALM      30.00R
VERO BEACH     CLEAR     78  74  87 CALM      30.00R
FT PIERCE      CLEAR     80  76  87 SE9       30.00R
STUART           N/A     75  73  94 S7        30.02R

STATION/POSITION SKY/WX   TEMP    WIND        PRES    WAVE   SWELL
                          AIR SEA DIR/SP/G            HT/PER HT/PER
                          (F)     (DEG/KT/KT) (MB)    (FT/S) (FT/S)
28.5N   80.2W              82 84  160/  8/ 10 1016.0R
28.9N   78.5W              81 85  180/ 10/ 12 1016.0R
TRIDENT PIER               79 87  130/  5/  8 1016.2R
28.4N   80.5W                 86                N/A     2/10
27.5N   80.2W                 85                N/A     2/ 3

$$
FLZ050-056-061-142-242-148-248-149-249-151-251-155-255-
160-260-280500-
WEST CENTRAL FLORIDA

CITY           SKY/WX    TMP DP  RH WIND       PRES   REMARKS
CRYSTAL RIVER  FAIR      77  73  88 CALM      29.99R
INVERNESS      FAIR      73  73 100 CALM      30.00S
BROOKSVILLE    CLEAR     77  73  87 E6        29.99F
CLEARWATER     CLEAR     79  74  84 SE6       29.99R
TAMPA INTL     PTCLDY    81  73  76 CALM      29.99R
TAMPA EXEC     PTCLDY    77  73  88 CALM      30.00R
PLANT CITY     PTCLDY    77  75  94 SE5       30.02R
MACDILL AFB    PTCLDY    78  75  91 SE6       29.99R
PETER O KNIGHT PTCLDY    81  75  83 SE6       30.00R
ST PETERSBURG  CLEAR     82  75  79 SE10      29.97R
SARASOTA       PTCLDY    76  74  93 SE7       29.97R
VENICE         FAIR      77  75  94 E6        30.00R

STATION/POSITION SKY/WX   TEMP    WIND        PRES    WAVE   SWELL
                          AIR SEA DIR/SP/G            HT/PER HT/PER
                          (F)     (DEG/KT/KT) (MB)    (FT/S) (FT/S)
CEDAR KEY                  79     190/ 16/ 17 1015.5F
28.5N   84.5W              85 87  170/  4/  6 1014.5R   1/ 4   2/ 4
27.3N   84.2W                 87                N/A     2/ 4
CLEARWATER BEACH           83 89  140/  5/  8 1014.9R
MIDDLE TAMPA BAY           81     150/  7/  8 1015.2R
VENICE                     78 89  110/  5/  7 1015.3R

$$
FLZ066-069-070-075>078-162-262-165-265-280500-
SOUTHWEST FLORIDA AND KEYS

CITY           SKY/WX    TMP DP  RH WIND       PRES   REMARKS
PUNTA GORDA    CLEAR     77  75  93 SE8       30.01R
FT MYERS       PTCLDY    77  74  90 CALM      29.99R
SOUTHWEST INTL CLEAR     78  74  87 SE3       29.99R
NAPLES         MOCLDY    81  75  82 E8        29.99S
MARATHON       PTCLDY    85  78  80 S8        29.99F HX  96
KEY WEST NAS   CLOUDY    83  77  82 S15       29.98F
KEY WEST INTL  CLOUDY    84  78  82 S14       29.98F HX  95

STATION/POSITION SKY/WX   TEMP    WIND        PRES    WAVE   SWELL
                          AIR SEA DIR/SP/G            HT/PER HT/PER
                          (F)     (DEG/KT/KT) (MB)    (FT/S) (FT/S)
VENICE                     78 89  110/  5/  7 1015.3R
NAPLES                        88              1016.5R
26.0N   85.6W              84 88  330/  4/  6 1014.8R   1/ 5   2/ 5
DRY TORTUGAS               85     130/ 16/ 18 1014.4R
NW FL BAY                  86     120/  9/ 11 1016.2
SAND KEY                   83     160/ 21     1015.1F
LONG KEY                   86 88  150/ 10/ 11 1016.4F
MOLASSES REEF              84 87  130/  7/  8 1016.0F

$$
FLZ067-068-071>074-168-172>174-280500-
SOUTHEAST FLORIDA

CITY           SKY/WX    TMP DP  RH WIND       PRES   REMARKS
W PALM BEACH   PTCLDY    75  74  96 S5        30.02R
FT LAUDER-EXEC CLEAR     81  73  76 E7        30.01S
FT LAUDERDALE  PTCLDY    82  75  79 SE9       30.01R
POMPANO BEACH  CLEAR     82  73  74 SE9       30.02R
PEMBROKE PINES MOCLDY    82  74  76 SE6       30.03R
OPA LOCKA      PTCLDY    82  74  76 SE7       30.02S
MIAMI          MOCLDY    83  75  77 E9        30.01S
WEST KENDALL   PTCLDY    81  73  76 CALM      30.01F
HOMESTEAD      PTCLDY    81  74  79 E3        30.00F

STATION/POSITION SKY/WX   TEMP    WIND        PRES    WAVE   SWELL
                          AIR SEA DIR/SP/G            HT/PER HT/PER
                          (F)     (DEG/KT/KT) (MB)    (FT/S) (FT/S)
PORT EVERGLADES            83      90/  4/  7 1016.2R
VIRGINIA KEY               84 88  120/  5/  9 1016.2R
LAKE WORTH                 82 86   90/  7/  9 1015.8R
SETTLEMENT POINT           80     130/  6/  7 1017.1F

$$



USA.gov is the U.S. government's official web portal to all federal, state and local government web resources and services.